STARLINK-1501 (45763 NORAD) Tracking and Keplerian Element Data

This shows tracking and keplerian element data for the satellite.

Feedback or suggestion? Click here.




ElementValue
Catalog45763
NameSTARLINK-1501
Epoch Orbit951
Epoch Day218.91667824
Epoch Year2020
RAAN33.9137
Inclination53.0004
Eccentricity0.0001545
Argument of Perigee41.6209
Mean Anonmoly154.4821
Mean Motion15.62696508
Decay Rate0.00067688
L11 45763U 20038AK 20218.91667824 .00067688 00000-0 74052-3 0 9990
L22 45763 53.0004 33.9137 0001545 41.6209 154.4821 15.62696508 9510

Live tracking and technical data element details for STARLINK-1501 (NORAD 45763). STARLINK-1501 can be tracked NOW for your location showing map with azimuth and elevation plus other details from your city location.

Track the satellite on the map from your city or location and see movement details for azimuth, elevation, latitude, longitude, range, height, and movement on the map or in text.







IsCatalogInMostPopularTable: catalog: 45763, numindb: 10
Update: records affected: 1



GetName: 45763 STARLINK-1501

Hit Count: updated at: Fri, 07 Aug 2020 23:45:00 GMT